Date String (YYYY-MM-DD hh:mm:ss) UTC,Instrument flags,Ambient pressure (hPa),Sample flow (lpm),Bypass flow (lpm),Sample temperature (°C),Ambient temperature (°C),ASC tube jacket temperature (°C),LED temperature (°C),Box temperature (°C),Sample RH (%),Span deviation,Mass concentration (μg/m³),Mass concentration (μg/m³),Mass concentration (μg/m³)
DateTimeUTC,F1_M11,P_M11,Q1_M11,Q2_M11,T1_M11,T2_M11,T3_M11,T4_M11,T5_M11,U1_M11,ZSPAN_M11,X0_M11,X2_M11,X1_M11
2021-10-19 17:00:00,,0821.2,5.00,0.00,29.0,28.1,00.0,38.0,30.8,15.1,0000.0,0022.51,0004.30,0002.59
2021-10-19 17:01:00,,0821.2,5.02,0.00,29.0,28.1,00.0,38.0,30.7,15.3,0000.0,0021.36,0004.25,0002.61
2021-10-19 17:02:00,,0821.2,4.98,0.00,29.0,28.1,00.0,38.0,30.7,15.6,0000.0,0019.90,0004.28,0002.64
2021-10-19 17:03:00,,0821.3,5.00,0.00,28.9,28.1,00.0,38.0,30.7,15.5,0000.0,0020.23,0004.34,0002.70
2021-10-19 17:04:00,,0821.3,5.00,0.00,28.9,28.1,00.0,38.0,30.7,15.5,0000.0,0019.60,0004.36,0002.78
2021-10-19 17:05:00,,0821.3,5.00,0.00,28.9,28.0,00.0,38.0,30.6,15.3,0000.0,0019.19,0004.46,0002.88
2021-10-19 17:06:00,,0821.3,5.00,0.00,28.9,28.0,00.0,38.0,30.6,15.1,0000.0,0017.23,0004.62,0003.02
2021-10-19 17:07:00,,0821.3,5.00,0.00,28.8,28.0,00.0,38.0,30.5,15.1,0000.0,0016.49,0004.69,0003.12
2021-10-19 17:08:00,,0821.4,5.00,0.00,28.8,27.9,00.0,38.0,30.5,14.9,0000.0,0016.45,0004.83,0003.18
2021-10-19 17:09:00,,0821.4,4.99,0.00,28.8,27.9,00.0,38.0,30.5,14.9,0000.0,0016.64,0004.88,0003.25
2021-10-19 17:10:00,,0821.4,5.00,0.00,28.8,27.9,00.0,38.0,30.5,15.0,0000.0,0016.04,0004.95,0003.32
2021-10-19 17:11:00,,0821.4,4.99,0.00,28.7,27.8,00.0,37.9,30.4,14.9,0000.0,0016.10,0005.04,0003.38
2021-10-19 17:12:00,,0821.4,5.01,0.00,28.7,27.8,00.0,37.9,30.4,15.0,0000.0,0016.30,0005.16,0003.43
2021-10-19 17:13:00,,0821.4,4.99,0.00,28.7,27.8,00.0,37.9,30.3,15.0,0000.0,0017.10,0005.21,0003.47
2021-10-19 17:14:00,,0821.4,5.00,0.00,28.6,27.7,00.0,37.9,30.3,15.1,0000.0,0016.54,0005.23,0003.49
2021-10-19 17:15:00,,0821.4,5.00,0.00,28.6,27.7,00.0,37.9,30.3,15.1,0000.0,0016.88,0005.28,0003.51
2021-10-19 17:16:00,,0821.4,5.01,0.00,28.6,27.7,00.0,37.8,30.3,15.2,0000.0,0016.05,0005.28,0003.52
2021-10-19 17:17:00,,0821.4,5.00,0.00,28.6,27.7,00.0,37.8,30.3,15.2,0000.0,0015.44,0005.23,0003.52
2021-10-19 17:18:00,,0821.4,4.99,0.00,28.6,27.7,00.0,37.8,30.3,15.2,0000.0,0015.32,0005.31,0003.52
2021-10-19 17:19:00,,0821.4,5.00,0.00,28.6,27.7,00.0,37.8,30.3,15.2,0000.0,0015.23,0005.29,0003.51
2021-10-19 17:20:00,,0821.4,4.99,0.00,28.6,27.7,00.0,37.8,30.3,15.2,0000.0,0015.02,0005.32,0003.49
2021-10-19 17:21:00,,0821.4,5.00,0.00,28.5,27.7,00.0,37.8,30.3,15.2,0000.0,0015.04,0005.37,0003.49
2021-10-19 17:22:00,,0821.4,5.00,0.00,28.6,27.7,00.0,37.8,30.3,15.2,0000.0,0015.68,0005.36,0003.48
2021-10-19 17:23:00,,0821.4,5.00,0.00,28.6,27.7,00.0,37.8,30.3,15.3,0000.0,0016.70,0005.35,0003.48
2021-10-19 17:24:00,,0821.4,5.00,0.00,28.6,27.7,00.0,37.7,30.3,15.3,0000.0,0016.31,0005.34,0003.45
2021-10-19 17:25:00,,0821.4,5.00,0.00,28.6,27.8,00.0,37.7,30.3,15.3,0000.0,0017.57,0005.40,0003.45
2021-10-19 17:26:00,,0821.2,5.00,0.00,28.6,27.8,00.0,37.7,30.3,15.3,0000.0,0017.38,0005.46,0003.46
2021-10-19 17:27:00,,0821.2,4.99,0.00,28.6,27.8,00.0,37.7,30.4,15.4,0000.0,0018.07,0005.50,0003.46
2021-10-19 17:28:00,,0821.2,4.99,0.00,28.6,27.8,00.0,37.7,30.4,15.5,0000.0,0017.74,0005.50,0003.45
2021-10-19 17:29:00,,0821.2,5.00,0.00,28.6,27.9,00.0,37.7,30.4,15.5,0000.0,0017.35,0005.42,0003.45
2021-10-19 17:30:00,,0821.2,5.01,0.00,28.7,27.9,00.0,37.7,30.4,15.6,0000.0,0017.12,0005.35,0003.44
2021-10-19 17:31:00,,0821.3,5.01,0.00,28.7,27.9,00.0,37.7,30.5,15.6,0000.0,0017.25,0005.32,0003.44
2021-10-19 17:32:00,,0821.3,5.00,0.00,28.7,27.9,00.0,37.7,30.5,15.6,0000.0,0019.12,0005.26,0003.44
2021-10-19 17:33:00,,0821.4,5.01,0.00,28.7,27.9,00.0,37.7,30.5,15.5,0000.0,0020.64,0005.27,0003.45
2021-10-19 17:34:00,,0821.4,5.00,0.00,28.7,27.9,00.0,37.7,30.4,15.6,0000.0,0020.15,0005.32,0003.45
2021-10-19 17:35:00,,0821.4,4.99,0.00,28.6,27.8,00.0,37.8,30.4,15.6,0000.0,0020.41,0005.38,0003.48
2021-10-19 17:36:00,,0821.5,4.99,0.00,28.6,27.8,00.0,37.7,30.4,15.6,0000.0,0020.10,0005.32,0003.48
2021-10-19 17:37:00,,0821.4,5.00,0.00,28.6,27.8,00.0,37.7,30.4,15.7,0000.0,0021.26,0005.29,0003.48
2021-10-19 17:38:00,,0821.5,5.00,0.00,28.6,27.8,00.0,37.7,30.4,15.6,0000.0,0020.75,0005.30,0003.50
2021-10-19 17:39:00,,0821.5,5.00,0.00,28.6,27.8,00.0,37.7,30.4,15.7,0000.0,0020.39,0005.29,0003.50
2021-10-19 17:40:00,,0821.6,5.01,0.00,28.6,27.8,00.0,37.7,30.4,15.7,0000.0,0021.86,0005.27,0003.51
2021-10-19 17:41:00,,0821.5,4.99,0.00,28.6,27.8,00.0,37.7,30.4,15.6,0000.0,0024.60,0005.32,0003.52
2021-10-19 17:42:00,,0821.5,5.01,0.00,28.6,27.8,00.0,37.7,30.4,15.6,0000.0,0024.77,0005.39,0003.53
2021-10-19 17:43:00,,0821.5,5.01,0.00,28.6,27.8,00.0,37.7,30.4,15.6,0000.0,0023.98,0005.47,0003.54
2021-10-19 17:44:00,,0821.5,5.00,0.00,28.6,27.8,00.0,37.7,30.4,15.6,0000.0,0024.18,0005.51,0003.55
2021-10-19 17:45:00,,0821.5,5.00,0.00,28.6,27.8,00.0,37.7,30.4,15.7,0000.0,0025.13,0005.57,0003.57
2021-10-19 17:46:00,,0821.4,4.99,0.00,28.7,27.9,00.0,37.7,30.4,15.5,0000.0,0025.08,0005.56,0003.57
2021-10-19 17:47:00,,0821.5,5.01,0.00,28.7,27.9,00.0,37.7,30.4,15.5,0000.0,0024.41,0005.61,0003.58
2021-10-19 17:48:00,,0821.5,5.00,0.00,28.7,27.9,00.0,37.7,30.5,15.5,0000.0,0023.88,0005.57,0003.57
2021-10-19 17:49:00,,0821.6,5.01,0.00,28.7,28.0,00.0,37.7,30.5,15.6,0000.0,0024.90,0005.50,0003.54
2021-10-19 17:50:00,,0821.6,5.00,0.00,28.7,28.0,00.0,37.7,30.5,15.6,0000.0,0025.07,0005.49,0003.54
2021-10-19 17:51:00,,0821.6,5.00,0.00,28.7,28.0,00.0,37.8,30.5,15.6,0000.0,0023.74,0005.49,0003.55
2021-10-19 17:52:00,,0821.5,5.00,0.00,28.8,28.0,00.0,37.8,30.6,15.6,0000.0,0021.54,0005.48,0003.54
2021-10-19 17:53:00,,0821.5,5.01,0.00,28.8,28.0,00.0,37.8,30.6,15.5,0000.0,0022.93,0005.44,0003.55
2021-10-19 17:54:00,,0821.5,5.00,0.00,28.8,28.1,00.0,37.8,30.6,15.5,0000.0,0022.52,0005.40,0003.54
2021-10-19 17:55:00,,0821.6,5.00,0.00,28.8,28.1,00.0,37.8,30.6,15.5,0000.0,0021.21,0005.39,0003.53
2021-10-19 17:56:00,,0821.5,5.00,0.00,28.8,28.1,00.0,37.8,30.6,15.5,0000.0,0020.25,0005.37,0003.53
2021-10-19 17:57:00,,0821.5,4.99,0.00,28.9,28.1,00.0,37.8,30.7,15.5,0000.0,0020.70,0005.40,0003.53
2021-10-19 17:58:00,,0821.5,5.00,0.00,28.9,28.1,00.0,37.8,30.7,15.5,0000.0,0020.94,0005.41,0003.51
2021-10-19 17:59:00,,0821.4,4.99,0.00,28.9,28.1,00.0,37.8,30.7,15.6,0000.0,0020.20,0005.39,0003.49
